Location: Unspecified
(41.5000°N, 0.0000°E)
Time: 04:31:28
(UTC+00:00)

Courier 1B Rocket - Pass Details

Date: 28 June 2019
Orbit: 920 x 1202 km, 28.3° (Epoch: 16 August)

Event Time Altitude Azimuth Distance (km) Brightness Sun altitude
Rises 07:04:21 0° 253° (WSW) 3,779 7.5 26.3°
Reaches altitude 10° 07:10:10 10° 215° (SW) 2,736 7.1 27.4°
Maximum altitude 07:11:09 10° 207° (SSW) 2,698 7.1 27.6°
Drops below altitude 10° 07:12:07 10° 198° (SSW) 2,709 7.2 27.8°
Sets 07:17:41 0° 159° (SSE) 3,588 8.1 28.8°
